Voltar ao catálogo

THORAD DELTA 1 DEB

AtivoLEO
NORAD 42601·DEBRIS·🇺🇸 United States

Lançado Nov 15, 1974 de Vandenberg Space Force Base

Loading…

Próximas Passagens (próximas 24 horas)

TLE

ObsoletoSource: Space-Track

Época: Sep 6, 2026, 03:56 UTC

1 42601U 74089FS  26249.16400556  .00000130  00000-0  43663-3 0  9990
2 42601 101.4951 227.9630 0314548 116.3207 308.4799 13.04785077999807

Acompanhe THORAD DELTA 1 DEB em tempo real com AllMySat

Download on the App Store